Location: Tierra del Sol
(32.6128°N, 116.3319°W)
Time: 06:21:13
(UTC-07:00)

Vanguard 1 - All Passes

Search period start: 17 October 2017 00:00
Search period end: 27 October 2017 00:00
Orbit: 650 x 3834 km, 34.3° (Epoch: 15 October)

Date Brightness Start Highest point End Pass type
(mag) Time Alt. Az. Time Alt. Az. Time Alt. Az.
17 Oct - 01:36:07 10° WSW 01:50:21 79° SSE 02:13:29 10° ENE visible
17 Oct - 03:58:25 10° W 04:17:45 85° N 04:41:38 10° E visible
17 Oct - 06:23:17 10° WNW 06:46:22 79° SSW 07:06:45 10° ESE visible
17 Oct - 08:50:55 10° WNW 09:11:36 42° SW 09:26:49 10° SSE daylight
17 Oct - 23:37:49 10° SSW 23:48:14 47° SE 00:06:11 10° ENE visible
18 Oct - 01:57:11 10° WSW 02:11:56 86° SSE 02:35:30 10° ENE visible
18 Oct - 04:19:55 10° W 04:39:50 86° N 05:03:29 10° E visible
18 Oct - 06:44:58 10° WNW 07:07:57 71° SSW 07:27:48 10° SE daylight
18 Oct - 09:13:34 10° W 09:32:17 33° SW 09:46:28 10° S daylight
18 Oct - 21:43:49 10° SSE 21:49:09 15° SE 21:56:07 10° E night (unlit)
18 Oct - 23:58:11 10° SW 00:09:03 58° SE 00:28:21 10° ENE visible
19 Oct - 02:18:22 10° WSW 02:33:42 88° N 02:57:32 10° E visible
19 Oct - 04:41:27 10° W 05:01:52 90° NNE 05:25:12 10° ESE visible
19 Oct - 07:06:44 10° WNW 07:29:22 62° SSW 07:48:34 10° SE daylight
19 Oct - 09:36:54 10° W 09:52:53 25° SW 10:05:30 10° S daylight
19 Oct - 22:02:20 10° S 22:09:24 24° SE 22:19:58 10° E night (unlit)
20 Oct - 00:18:50 10° SW 00:30:05 69° SSE 00:50:25 10° ENE visible
20 Oct - 02:39:40 10° W 02:55:34 86° N 03:19:36 10° E visible
20 Oct - 05:02:58 10° WNW 05:23:48 85° SSW 05:46:47 10° ESE visible
20 Oct - 07:28:37 10° WNW 07:50:33 52° SW 08:09:03 10° SSE daylight
20 Oct - 10:01:36 10° W 10:13:24 17° SW 10:23:21 10° SSW daylight
20 Oct - 22:21:50 10° SSW 22:29:45 33° SE 22:42:49 10° ENE night (unlit)
21 Oct - 00:39:40 10° WSW 00:51:21 79° SSE 01:12:27 10° ENE visible
21 Oct - 03:01:00 10° W 03:17:31 85° N 03:41:39 10° E visible
21 Oct - 05:24:29 10° WNW 05:45:36 78° SSW 06:08:09 10° ESE visible
21 Oct - 07:50:44 10° WNW 08:11:35 43° SW 08:29:10 10° SSE daylight
21 Oct - 10:31:25 10° WSW 10:33:58 10° WSW 10:36:25 10° SW daylight
21 Oct - 22:41:51 10° SSW 22:50:16 44° SE 23:05:10 10° ENE visible
22 Oct - 01:00:40 10° WSW 01:12:49 87° SSE 01:34:32 10° ENE visible
22 Oct - 03:22:21 10° W 03:39:29 87° N 04:03:39 10° E visible
22 Oct - 05:46:01 10° WNW 06:07:15 70° SSW 06:29:16 10° SE visible
22 Oct - 08:13:15 10° W 08:32:27 34° SW 08:48:49 10° SSE daylight
22 Oct - 20:49:00 10° SE 20:51:51 12° SE 20:55:12 10° ESE night (unlit)
22 Oct - 23:02:12 10° SW 23:11:01 56° SE 23:27:18 10° ENE visible
23 Oct - 01:21:47 10° W 01:34:26 88° N 01:56:39 10° E visible
23 Oct - 03:43:44 10° W 04:01:24 90° SSW 04:25:32 10° ESE visible
23 Oct - 06:07:37 10° WNW 06:28:43 61° SSW 06:50:06 10° SE visible
23 Oct - 08:36:25 10° W 08:53:14 26° SW 09:07:51 10° S daylight
23 Oct - 21:06:48 10° S 21:12:06 20° SE 21:19:37 10° E night (unlit)
23 Oct - 23:22:49 10° SW 23:31:57 68° SSE 23:49:20 10° ENE visible
24 Oct - 01:42:57 10° W 01:56:09 85° N 02:18:49 10° E visible
24 Oct - 04:05:05 10° WNW 04:23:15 84° SSW 04:47:14 10° ESE visible
24 Oct - 06:29:23 10° WNW 06:50:02 52° SW 07:10:36 10° SSE visible
24 Oct - 09:00:51 10° W 09:14:00 18° SW 09:25:45 10° SSW daylight
24 Oct - 21:26:10 10° SSW 21:32:26 29° SE 21:42:26 10° E night (unlit)
24 Oct - 23:43:38 10° WSW 23:53:07 79° SSE 00:11:21 10° ENE visible
25 Oct - 02:04:11 10° W 02:17:56 85° N 02:40:59 10° E visible
25 Oct - 04:26:28 10° WNW 04:44:59 77° SSW 05:08:42 10° ESE visible
25 Oct - 06:51:21 10° WNW 07:11:13 43° SW 07:30:44 10° SSE daylight
25 Oct - 09:28:52 10° WSW 09:34:47 12° SW 09:40:25 10° SW daylight
25 Oct - 21:46:09 10° SSW 21:52:56 40° SE 22:04:43 10° ENE night (unlit)
26 Oct - 00:04:34 10° WSW 00:14:28 88° SSE 00:33:24 10° E visible
26 Oct - 02:25:26 10° W 02:39:44 87° N 03:03:05 10° E visible
26 Oct - 04:47:52 10° WNW 05:06:37 69° SSW 05:29:54 10° SE visible
26 Oct - 07:13:44 10° W 07:32:17 34° SW 07:50:22 10° SSE daylight
26 Oct - 22:06:29 10° SW 22:13:37 53° SE 22:26:44 10° ENE night (unlit)
